STARLINK-33857 (64195 NORAD) Tracking and Keplerian Element Data

This shows tracking and keplerian element data for the satellite.

Feedback or suggestion? Click here.




ElementValue
Catalog64195
NameSTARLINK-33857
Epoch Orbit3275
Epoch Day353.52218811
Epoch Year2025
RAAN103.3236
Inclination53.1599
Eccentricity0.000117
Argument of Perigee64.9765
Mean Anonmoly295.1357
Mean Motion15.30208678
Decay Rate0.00020441
L11 64195U 25113AB 25353.52218811 .00020441 00000+0 70019-3 0 9993
L22 64195 53.1599 103.3236 0001170 64.9765 295.1357 15.30208678 32752



Live tracking and technical data element details for STARLINK-33857 (NORAD 64195). STARLINK-33857 can be tracked NOW for your location showing map with azimuth and elevation plus other details from your city location.







IsCatalogInMostPopularTable: catalog: 64195, numindb: 4
Update: records affected: 1



GetName: 64195 STARLINK-33857

Hit Count: updated at: Sun, 08 Feb 2026 16:56:27 GMT